| time (UTC) | temp C | wind direction | speed KPH | gust KPH | rain 1hr cm | rain 24hr cm | rain mn cm | humidity % | barometer mb |
| 20260505164520 | 12 | 156 | 0.0 | 4.8 | 0.00 | 1.09 | 0.71 | 85 | 1012.0 |
| 20260505163012 | 12 | 230 | 0.0 | 6.4 | 0.00 | 1.09 | 0.71 | 85 | 1012.1 |
| 20260505161505 | 12 | 223 | 1.6 | 9.7 | 0.00 | 1.09 | 0.71 | 85 | 1012.1 |
| 20260505153004 | 12 | 217 | 1.6 | 9.7 | 0.00 | 1.09 | 0.71 | 86 | 1011.9 |
| 20260505151604 | 12 | 173 | 1.6 | 9.7 | 0.00 | 1.09 | 0.71 | 85 | 1011.9 |
| 20260505124511 | 12 | 155 | 0.0 | 9.7 | 0.00 | 1.09 | 0.71 | 85 | 1012.8 |
| 20260505123010 | 12 | 182 | 3.2 | 6.4 | 0.00 | 1.09 | 0.71 | 88 | 1012.7 |
| 20260505121510 | 12 | 159 | 3.2 | 11.3 | 0.00 | 1.09 | 0.71 | 88 | 1012.8 |
| 20260505120007 | 11 | 194 | 3.2 | 16.1 | 0.00 | 1.09 | 0.71 | 89 | 1012.8 |
| 20260505114501 | 11 | 238 | 3.2 | 12.9 | 0.00 | 1.09 | 0.71 | 89 | 1013.0 |
| 20260505113001 | 11 | 227 | 3.2 | 8.0 | 0.00 | 1.09 | 0.71 | 89 | 1013.1 |
| 20260505111601 | 11 | 215 | 1.6 | 8.0 | 0.00 | 1.09 | 0.71 | 89 | 1013.1 |
| 20260505110105 | 11 | 211 | 1.6 | 8.0 | 0.00 | 1.09 | 0.71 | 88 | 1013.2 |
| 20260505101517 | 10 | 180 | 0.0 | 1.6 | 0.00 | 1.17 | 0.71 | 89 | 1013.4 |
| 20260505100015 | 10 | 182 | 1.6 | 3.2 | 0.00 | 1.17 | 0.71 | 90 | 1013.4 |
| 20260505094509 | 10 | 182 | 0.0 | 3.2 | 0.00 | 1.17 | 0.71 | 90 | 1013.4 |
| 20260505093005 | 10 | 182 | 1.6 | 4.8 | 0.00 | 1.17 | 0.71 | 91 | 1013.3 |
| 20260505091549 | 10 | 192 | 1.6 | 4.8 | 0.00 | 1.17 | 0.71 | 91 | 1013.3 |
| 20260505090049 | 10 | 208 | 0.0 | 1.6 | 0.00 | 1.17 | 0.71 | 91 | 1013.3 |
| 20260505084600 | 10 | 209 | 0.0 | 3.2 | 0.00 | 1.17 | 0.71 | 92 | 1013.2 |
| 20260505083100 | 10 | 222 | 1.6 | 4.8 | 0.00 | 1.17 | 0.71 | 92 | 1013.1 |
| 20260505081603 | 10 | 225 | 0.0 | 3.2 | 0.00 | 1.17 | 0.71 | 92 | 1013.0 |
| 20260505080053 | 9 | 225 | 3.2 | 6.4 | 0.00 | 1.17 | 0.71 | 92 | 1012.8 |
| 20260505074515 | 9 | 80 | 0.0 | 3.2 | 0.00 | 1.17 | 0.71 | 92 | 1012.8 |
| 20260505073011 | 9 | 80 | 0.0 | 3.2 | 0.00 | 1.17 | 0.71 | 92 | 1012.8 |
| 20260505071517 | 9 | 80 | 0.0 | 3.2 | 0.00 | 1.17 | 0.71 | 92 | 1012.8 |
| 20260505070004 | 8 | 82 | 0.0 | 1.6 | 0.00 | 1.17 | 0.71 | 92 | 1012.8 |
| 20260505064530 | 8 | 82 | 0.0 | 3.2 | 0.00 | 1.17 | 0.71 | 92 | 1012.8 |
| 20260505063035 | 8 | 81 | 0.0 | 1.6 | 0.00 | 1.17 | 0.71 | 92 | 1012.7 |
| 20260505061533 | 8 | 81 | 0.0 | 3.2 | 0.00 | 1.17 | 0.71 | 92 | 1012.7 |
| 20260505060024 | 8 | 98 | 1.6 | 3.2 | 0.00 | 1.17 | 0.71 | 92 | 1012.9 |
| 20260505054524 | 8 | 98 | 0.0 | 3.2 | 0.03 | 1.17 | 0.71 | 92 | 1012.6 |
| 20260505053020 | 8 | 98 | 1.6 | 3.2 | 0.03 | 1.17 | 0.71 | 92 | 1012.6 |
| 20260505051520 | 8 | 98 | 1.6 | 6.4 | 0.03 | 1.17 | 0.71 | 92 | 1012.6 |
| 20260505041504 | 8 | 44 | 0.0 | 3.2 | 0.30 | 1.14 | 0.71 | 92 | 1013.0 |
| 20260505040059 | 8 | 44 | 0.0 | 3.2 | 0.30 | 1.09 | 0.66 | 92 | 1013.2 |
| 20260505034520 | 9 | 44 | 0.0 | 1.6 | 0.33 | 0.99 | 0.58 | 92 | 1013.4 |
| 20260505033025 | 9 | 44 | 0.0 | 3.2 | 0.28 | 0.89 | 0.48 | 92 | 1013.5 |
| 20260505031507 | 9 | 44 | 0.0 | 3.2 | 0.28 | 0.84 | 0.43 | 92 | 1013.6 |
| 20260505030057 | 9 | 44 | 1.6 | 3.2 | 0.25 | 0.79 | 0.36 | 92 | 1013.6 |
| 20260505024548 | 9 | 44 | 0.0 | 1.6 | 0.20 | 0.69 | 0.25 | 92 | 1013.9 |
| 20260505023021 | 9 | 44 | 0.0 | 1.6 | 0.15 | 0.61 | 0.20 | 92 | 1014.0 |
| 20260505021533 | 9 | 44 | 0.0 | 3.2 | 0.08 | 0.56 | 0.15 | 92 | 1014.0 |
| 20260505020058 | 9 | 44 | 0.0 | 3.2 | 0.05 | 0.51 | 0.10 | 92 | 1013.9 |
| 20260505014535 | 9 | 44 | 0.0 | 3.2 | 0.03 | 0.48 | 0.05 | 92 | 1013.9 |
| 20260505013103 | 9 | 44 | 0.0 | 3.2 | 0.03 | 0.48 | 0.05 | 92 | 1013.9 |
| 20260505011558 | 9 | 44 | 0.0 | 1.6 | 0.03 | 0.48 | 0.05 | 92 | 1014.0 |
| 20260505010049 | 9 | 44 | 1.6 | 4.8 | 0.05 | 0.48 | 0.05 | 92 | 1014.2 |
| 20260505004544 | 9 | 44 | 1.6 | 4.8 | 0.03 | 0.46 | 0.05 | 92 | 1014.6 |
| 20260505003035 | 9 | 24 | 0.0 | 4.8 | 0.03 | 0.46 | 0.05 | 92 | 1015.1 |
| 20260505001532 | 9 | 53 | 0.0 | 3.2 | 0.03 | 0.46 | 0.05 | 92 | 1015.5 |
| 20260505000058 | 9 | 53 | 1.6 | 4.8 | 0.00 | 0.43 | 0.03 | 92 | 1015.6 |
| 20260504234548 | 9 | 53 | 0.0 | 3.2 | 0.00 | 0.43 | 0.03 | 92 | 1016.1 |
| 20260504233020 | 9 | 55 | 1.6 | 4.8 | 0.03 | 0.43 | 0.03 | 92 | 1016.2 |
| 20260504231516 | 9 | 55 | 1.6 | 6.4 | 0.03 | 0.43 | 0.03 | 92 | 1016.3 |
| 20260504230010 | 9 | 59 | 1.6 | 6.4 | 0.03 | 0.43 | 0.03 | 92 | 1016.5 |
| 20260504224526 | 9 | 67 | 1.6 | 6.4 | 0.03 | 0.43 | 0.03 | 92 | 1016.7 |
| 20260504223056 | 9 | 68 | 0.0 | 4.8 | 0.00 | 0.43 | 0.00 | 92 | 1016.6 |
| 20260504221553 | 9 | 74 | 3.2 | 6.4 | 0.00 | 0.43 | 0.00 | 91 | 1016.7 |
| 20260504214543 | 9 | 62 | 1.6 | 4.8 | 0.03 | 0.43 | 0.43 | 91 | 1017.0 |
| 20260504213040 | 9 | 49 | 3.2 | 6.4 | 0.03 | 0.43 | 0.43 | 91 | 1017.2 |
| 20260504211539 | 9 | 40 | 1.6 | 4.8 | 0.05 | 0.43 | 0.43 | 91 | 1017.4 |
| 20260504210035 | 9 | 19 | 0.0 | 3.2 | 0.05 | 0.41 | 0.41 | 91 | 1017.5 |
| 20260504204548 | 9 | 19 | 1.6 | 4.8 | 0.05 | 0.41 | 0.41 | 91 | 1017.5 |
| 20260504203033 | 9 | 18 | 1.6 | 6.4 | 0.08 | 0.41 | 0.41 | 91 | 1017.6 |
| 20260504201531 | 9 | 150 | 0.0 | 3.2 | 0.10 | 0.38 | 0.38 | 90 | 1017.8 |
| 20260504200026 | 9 | 150 | 0.0 | 4.8 | 0.13 | 0.36 | 0.36 | 90 | 1017.5 |
| 20260504194524 | 10 | 159 | 1.6 | 4.8 | 0.13 | 0.33 | 0.33 | 90 | 1017.4 |
| 20260504193021 | 10 | 170 | 0.0 | 4.8 | 0.10 | 0.33 | 0.33 | 89 | 1017.2 |
| 20260504191521 | 10 | 257 | 0.0 | 3.2 | 0.05 | 0.25 | 0.25 | 88 | 1017.0 |
| 20260504190019 | 10 | 360 | 0.0 | 4.8 | 0.05 | 0.23 | 0.23 | 88 | 1016.9 |
| 20260504184522 | 10 | 61 | 1.6 | 4.8 | 0.03 | 0.23 | 0.23 | 88 | 1016.8 |
| 20260504183012 | 10 | 61 | 0.0 | 4.8 | 0.05 | 0.23 | 0.23 | 88 | 1016.6 |
| 20260504181510 | 11 | 51 | 3.2 | 6.4 | 0.05 | 0.20 | 0.20 | 88 | 1016.7 |
| 20260504180010 | 11 | 301 | 0.0 | 4.8 | 0.08 | 0.20 | 0.20 | 87 | 1016.8 |
| 20260504174538 | 11 | 301 | 1.6 | 3.2 | 0.13 | 0.20 | 0.20 | 86 | 1016.9 |
| 20260504173038 | 12 | 301 | 0.0 | 3.2 | 0.13 | 0.18 | 0.18 | 85 | 1016.8 |
| 20260504171533 | 12 | 302 | 0.0 | 3.2 | 0.10 | 0.15 | 0.15 | 83 | 1016.8 |